User: anonymous   Login
Location: Newark
(42.8481°N, 0.4872°E)
Time: 14:39:25
(UTC+00:00)
Language:

SR - Orbit

View from above orbital plane
View from above orbital plane
View from above satellite
View from above satellite

Ground track
Ground track

The orbit data is extracted from the following two-line orbital elements,

1    46U 60007B   20304.78942394 -.00000008 +00000-0 +21544-4 0  9997
2    46 066.6923 040.8551 0206379 028.5349 332.6871 14.49326002158729
Epoch (UTC): 30 October 2020 18:56:46
Eccentricity: 0.0206379
inclination: 66.6923°
perigee height: 581 km
apogee height: 874 km
right ascension of ascending node: 40.8551°
argument of perigee: 28.5349°
revolutions per day: 14.49326002
mean anomaly at epoch: 332.6871°
orbit number at epoch: 15872

The dashed part of the orbit path shows where the satellite is in the earth's shadow,  

DLR